Location: *
(45.5667°S, 177.5167°W)
Time: 03:55:41
(UTC+00:00)

Cosmos 2333 Rocket - Pass Details

Date: 29 May 2022
Orbit: 839 x 863 km, 70.8° (Epoch: 24 June)

Event Time Altitude Azimuth Distance (km) Brightness Sun altitude
Rises 05:53:57 0° 199° (SSW) 3,459 5.4 -16.4°
Reaches altitude 10° 05:57:37 10° 176° (S) 2,512 4.5 -17.0°
Enters shadow 05:59:59 15° 152° (SSE) 2,186 4.0 -17.4°
